Location: Poughquag
(41.6090°N, 73.6820°W)
Time: 03:35:49
(UTC-04:00)

Transit 4A - Pass Details

Date: 01 June 2020
Orbit: 866 x 978 km, 66.8° (Epoch: 06 July)

Event Time Altitude Azimuth Distance (km) Brightness Sun altitude
Rises 12:28:00 0° 316° (NW) 3,588 10.8 69.9°
Reaches altitude 10° 12:31:04 10° 302° (WNW) 2,660 10.3 70.0°
Maximum altitude 12:35:36 22° 255° (WSW) 1,974 10.0 70.2°
Drops below altitude 10° 12:40:11 10° 207° (SSW) 2,695 10.7 70.4°
Sets 12:43:21 0° 193° (SSW) 3,649 11.3 70.5°
